LEGION 2

Last updated on Wed Mar 11 2026 00:02:36 GMT+0000 (Coordinated Universal Time)

1 59626U 24081B 26069.49991586 .00005769 00000+0 29859-3 0 9999 2 59626 97.5068 148.4665 0010181 341.9272 18.1598 15.16573833102588
UTC large
Height (km)
Speed (km/s)
/
Latitude / Longitude
Inclination (degrees)
Orbital Period (minutes)
Azimuth
Elevation
Range (km)
Doppler Factor

Next 0 passes for location: London (51.5072 / 0.1276)

Sorry there are no passes over London.